ACA1031 CYUL-KDFW

Flight info

Callsign ACA1031
Flight time N/A
Altitude 36000
Route KESKA DCT SAVEX Q806 TUKIR DCT KENLU DCT BOLMO DCT TWIGS DCT DXO/N0470F380 DCT FWA DCT MACES DCT WIDAM DCT FAM DCT FLP DCT FSM DCT KOMMA DCT RRNET BRDJE5
Aircraft B38M/M-SDE1FGHILORVWXY/HB1

Departure

Time 2026-05-07 15:36
Airport Montreal / Pierre Elliott Trudeau International Airport (CYUL)

Arrival

Time N/A
Airport Dallas Fort Worth International Airport (KDFW)
Time Latitude Longitude Altitude Speed Heading
2026-05-07 14:21 45.45476 -73.75539 106 ft 0 kts 347°
2026-05-07 15:16 45.45461 -73.75534 106 ft 3 kts 347°
2026-05-07 15:16 45.45442 -73.75528 106 ft 3 kts 339°
2026-05-07 15:16 45.45427 -73.75513 107 ft 3 kts 287°
2026-05-07 15:16 45.45428 -73.75483 106 ft 3 kts 255°
2026-05-07 15:17 45.45431 -73.75467 106 ft 1 kts 257°
2026-05-07 15:20 45.45430 -73.75475 106 ft 2 kts 257°
2026-05-07 15:20 45.45427 -73.75491 106 ft 3 kts 257°
2026-05-07 15:20 45.45421 -73.75531 107 ft 5 kts 257°
2026-05-07 15:20 45.45412 -73.75586 107 ft 6 kts 258°
2026-05-07 15:21 45.45409 -73.75626 107 ft 3 kts 279°
2026-05-07 15:21 45.45420 -73.75647 107 ft 2 kts 323°
2026-05-07 15:21 45.45436 -73.75656 107 ft 3 kts 346°
2026-05-07 15:21 45.45460 -73.75662 107 ft 5 kts 349°
2026-05-07 15:22 45.45504 -73.75675 107 ft 8 kts 349°
2026-05-07 15:22 45.45566 -73.75692 107 ft 7 kts 349°
2026-05-07 15:22 45.45613 -73.75705 107 ft 8 kts 349°
2026-05-07 15:22 45.45670 -73.75721 107 ft 6 kts 349°
2026-05-07 15:23 45.45709 -73.75752 107 ft 7 kts 313°
2026-05-07 15:23 45.45745 -73.75816 107 ft 9 kts 308°
2026-05-07 15:23 45.45788 -73.75895 107 ft 9 kts 308°
2026-05-07 15:23 45.45793 -73.75904 107 ft 3 kts 308°
2026-05-07 15:24 45.45825 -73.75932 107 ft 7 kts 350°
2026-05-07 15:24 45.45881 -73.75946 107 ft 9 kts 348°
2026-05-07 15:24 45.45948 -73.75954 107 ft 11 kts 358°
2026-05-07 15:24 45.46025 -73.75958 107 ft 12 kts 358°
2026-05-07 15:25 45.46098 -73.75960 105 ft 9 kts 12°
2026-05-07 15:25 45.46126 -73.75892 104 ft 9 kts 88°
2026-05-07 15:25 45.46128 -73.75790 104 ft 12 kts 88°
2026-05-07 15:25 45.46132 -73.75665 104 ft 14 kts 88°
2026-05-07 15:26 45.46136 -73.75519 104 ft 16 kts 88°
2026-05-07 15:26 45.46141 -73.75359 104 ft 16 kts 88°
2026-05-07 15:26 45.46146 -73.75188 104 ft 18 kts 88°
2026-05-07 15:26 45.46151 -73.75010 107 ft 18 kts 88°
2026-05-07 15:27 45.46157 -73.74824 106 ft 19 kts 87°
2026-05-07 15:27 45.46161 -73.74679 106 ft 10 kts 88°
2026-05-07 15:27 45.46155 -73.74594 104 ft 9 kts 114°
2026-05-07 15:27 45.46131 -73.74542 106 ft 6 kts 114°
2026-05-07 15:28 45.46128 -73.74468 106 ft 9 kts 87°
2026-05-07 15:28 45.46131 -73.74361 106 ft 12 kts 88°
2026-05-07 15:28 45.46135 -73.74232 106 ft 14 kts 87°
2026-05-07 15:28 45.46140 -73.74099 107 ft 10 kts 86°
2026-05-07 15:29 45.46160 -73.74030 107 ft 8 kts 46°
2026-05-07 15:29 45.46209 -73.73967 107 ft 11 kts 42°
2026-05-07 15:29 45.46279 -73.73874 107 ft 16 kts 43°
2026-05-07 15:29 45.46372 -73.73753 110 ft 19 kts 43°
2026-05-07 15:30 45.46471 -73.73622 110 ft 20 kts 42°
2026-05-07 15:30 45.46575 -73.73485 111 ft 21 kts 43°
2026-05-07 15:30 45.46683 -73.73344 114 ft 22 kts 43°
2026-05-07 15:30 45.46796 -73.73196 115 ft 22 kts 43°
2026-05-07 15:31 45.46912 -73.73043 115 ft 23 kts 43°
2026-05-07 15:31 45.47032 -73.72886 117 ft 24 kts 43°
2026-05-07 15:31 45.47153 -73.72728 118 ft 25 kts 42°
2026-05-07 15:31 45.47280 -73.72563 118 ft 27 kts 43°
2026-05-07 15:32 45.47424 -73.72373 118 ft 29 kts 43°
2026-05-07 15:32 45.47572 -73.72178 122 ft 29 kts 42°
2026-05-07 15:32 45.47721 -73.71983 119 ft 21 kts 43°
2026-05-07 15:32 45.47806 -73.71873 121 ft 14 kts 43°
2026-05-07 15:33 45.47861 -73.71803 123 ft 8 kts 45°
2026-05-07 15:33 45.47870 -73.71737 124 ft 7 kts 117°
2026-05-07 15:33 45.47841 -73.71679 123 ft 8 kts 127°
2026-05-07 15:33 45.47801 -73.71615 125 ft 9 kts 133°
2026-05-07 15:34 45.47764 -73.71557 125 ft 5 kts 133°
2026-05-07 15:34 45.47747 -73.71550 128 ft 2 kts 194°
2026-05-07 15:34 45.47723 -73.71577 127 ft 0 kts 223°
2026-05-07 15:35 45.47722 -73.71578 127 ft 1 kts 223°
2026-05-07 15:35 45.47654 -73.71668 126 ft 42 kts 223°
2026-05-07 15:35 45.47256 -73.72190 119 ft 110 kts 223°
2026-05-07 15:36 45.46563 -73.73100 123 ft 161 kts 222°
2026-05-07 15:36 45.45692 -73.74202 706 ft 169 kts 224°
2026-05-07 15:36 45.44801 -73.75256 1654 ft 165 kts 223°
2026-05-07 15:36 45.43893 -73.76299 2372 ft 169 kts 223°
2026-05-07 15:37 45.42973 -73.77331 3120 ft 171 kts 223°
2026-05-07 15:37 45.41978 -73.78442 3545 ft 194 kts 223°
2026-05-07 15:37 45.40859 -73.79725 3949 ft 218 kts 224°
2026-05-07 15:37 45.39866 -73.81428 4426 ft 232 kts 252°
2026-05-07 15:38 45.39702 -73.83752 5046 ft 242 kts 278°
2026-05-07 15:38 45.40106 -73.86051 6104 ft 240 kts 284°
2026-05-07 15:38 45.40518 -73.88393 6892 ft 247 kts 283°
2026-05-07 15:38 45.40945 -73.90761 7775 ft 248 kts 284°
2026-05-07 15:39 45.41385 -73.93163 8558 ft 252 kts 284°
2026-05-07 15:39 45.41836 -73.95595 9412 ft 256 kts 284°
2026-05-07 15:39 45.42295 -73.98059 10215 ft 260 kts 284°
2026-05-07 15:39 45.42764 -74.00582 10610 ft 277 kts 284°
2026-05-07 15:40 45.43271 -74.03326 10841 ft 297 kts 283°
2026-05-07 15:40 45.43811 -74.06261 11082 ft 315 kts 283°
2026-05-07 15:40 45.44381 -74.09343 11479 ft 328 kts 283°
2026-05-07 15:40 45.44972 -74.12521 12131 ft 334 kts 283°
2026-05-07 15:41 45.45574 -74.15731 12837 ft 337 kts 283°
2026-05-07 15:41 45.46183 -74.18978 13515 ft 341 kts 283°
2026-05-07 15:41 45.46799 -74.22261 14141 ft 344 kts 283°
2026-05-07 15:41 45.47419 -74.25568 14793 ft 346 kts 282°
2026-05-07 15:42 45.48042 -74.28891 15442 ft 349 kts 283°
2026-05-07 15:42 45.48672 -74.32259 16027 ft 353 kts 283°
2026-05-07 15:42 45.49306 -74.35650 16662 ft 356 kts 282°
2026-05-07 15:42 45.49944 -74.39074 17280 ft 358 kts 282°
2026-05-07 15:43 45.50589 -74.42534 17889 ft 361 kts 282°
2026-05-07 15:43 45.51031 -74.46047 18416 ft 360 kts 269°
2026-05-07 15:43 45.50744 -74.49578 18935 ft 360 kts 259°
2026-05-07 15:43 45.50313 -74.53095 19523 ft 359 kts 259°
2026-05-07 15:44 45.49859 -74.56600 20060 ft 360 kts 258°
2026-05-07 15:44 45.49394 -74.60069 20546 ft 362 kts 258°
2026-05-07 15:44 45.48909 -74.63598 21044 ft 363 kts 258°
2026-05-07 15:44 45.48417 -74.67138 21558 ft 365 kts 258°
2026-05-07 15:45 45.47919 -74.70697 21987 ft 368 kts 258°
2026-05-07 15:45 45.47414 -74.74293 22473 ft 370 kts 258°
2026-05-07 15:45 45.46906 -74.77897 22963 ft 372 kts 258°
2026-05-07 15:45 45.46395 -74.81512 23439 ft 373 kts 258°
2026-05-07 15:46 45.45361 -74.88802 24178 ft 378 kts 258°
2026-05-07 15:46 45.44837 -74.92485 24554 ft 380 kts 258°
2026-05-07 15:46 45.44310 -74.96185 24923 ft 383 kts 258°
2026-05-07 15:47 45.43776 -74.99916 25292 ft 385 kts 258°
2026-05-07 15:47 45.43237 -75.03677 25666 ft 388 kts 257°
2026-05-07 15:47 45.42692 -75.07445 26028 ft 390 kts 257°
2026-05-07 15:47 45.42141 -75.11246 26418 ft 393 kts 258°
2026-05-07 15:48 45.41585 -75.15076 26717 ft 397 kts 258°
2026-05-07 15:48 45.41030 -75.18883 27065 ft 399 kts 258°
2026-05-07 15:48 45.40455 -75.22819 27405 ft 402 kts 258°
2026-05-07 15:48 45.39893 -75.26662 27787 ft 403 kts 258°
2026-05-07 15:49 45.39317 -75.30591 28125 ft 406 kts 258°
2026-05-07 15:49 45.38738 -75.34521 28486 ft 407 kts 257°
2026-05-07 15:49 45.38156 -75.38470 28963 ft 406 kts 257°
2026-05-07 15:49 45.37575 -75.42397 29435 ft 405 kts 257°
2026-05-07 15:50 45.36994 -75.46320 29910 ft 404 kts 257°
2026-05-07 15:50 45.36413 -75.50228 30282 ft 404 kts 257°
2026-05-07 15:50 45.35837 -75.54096 30626 ft 404 kts 257°
2026-05-07 15:50 45.35254 -75.58002 30897 ft 406 kts 257°
2026-05-07 15:51 45.34665 -75.61939 31194 ft 406 kts 257°
2026-05-07 15:51 45.34075 -75.65868 31530 ft 406 kts 257°
2026-05-07 15:51 45.33485 -75.69791 31862 ft 406 kts 257°
2026-05-07 15:51 45.32891 -75.73727 32185 ft 407 kts 257°
2026-05-07 15:52 45.32297 -75.77659 32500 ft 407 kts 257°
2026-05-07 15:52 45.31701 -75.81587 32829 ft 407 kts 257°
2026-05-07 15:52 45.31104 -75.85517 33143 ft 407 kts 257°
2026-05-07 15:52 45.30512 -75.89404 33455 ft 407 kts 257°
2026-05-07 15:53 45.29913 -75.93325 33772 ft 407 kts 257°
2026-05-07 15:53 45.29312 -75.97252 34104 ft 405 kts 257°
2026-05-07 15:53 45.28713 -76.01160 34378 ft 405 kts 257°
2026-05-07 15:53 45.28110 -76.05076 34580 ft 406 kts 257°
2026-05-07 15:54 45.27507 -76.08986 34827 ft 406 kts 257°
2026-05-07 15:54 45.26902 -76.12906 35067 ft 407 kts 257°
2026-05-07 15:54 45.26294 -76.16835 35316 ft 407 kts 257°
2026-05-07 15:54 45.25686 -76.20753 35558 ft 407 kts 257°
2026-05-07 15:55 45.24979 -76.24642 35779 ft 407 kts 249°
2026-05-07 15:55 45.22781 -76.32061 35878 ft 407 kts 248°
2026-05-07 15:56 45.20607 -76.39409 35899 ft 406 kts 248°
2026-05-07 15:56 45.18408 -76.46811 35900 ft 409 kts 248°
2026-05-07 15:57 45.16195 -76.54239 35886 ft 408 kts 248°
2026-05-07 15:57 45.13988 -76.61622 35902 ft 405 kts 248°
2026-05-07 15:58 45.11783 -76.68977 35904 ft 405 kts 248°
2026-05-07 15:58 45.09588 -76.76280 35905 ft 406 kts 248°
2026-05-07 15:59 45.07373 -76.83627 35913 ft 406 kts 248°
2026-05-07 15:59 45.05150 -76.90977 35916 ft 407 kts 248°
2026-05-07 16:00 45.02916 -76.98346 35913 ft 408 kts 248°
2026-05-07 16:00 45.00678 -77.05703 35916 ft 406 kts 248°
2026-05-07 16:01 44.98459 -77.12978 35920 ft 406 kts 248°
2026-05-07 16:01 44.96218 -77.20307 35921 ft 406 kts 248°
2026-05-07 16:02 44.93975 -77.27618 35923 ft 406 kts 248°
2026-05-07 16:02 44.91722 -77.34942 35927 ft 407 kts 248°
2026-05-07 16:03 44.89454 -77.42293 35926 ft 409 kts 248°
2026-05-07 16:03 44.87182 -77.49635 35925 ft 406 kts 248°
2026-05-07 16:04 44.84924 -77.56913 35927 ft 404 kts 248°
2026-05-07 16:04 44.82664 -77.64174 35930 ft 405 kts 248°
2026-05-07 16:05 44.80416 -77.71380 35926 ft 405 kts 248°
2026-05-07 16:05 44.78146 -77.78634 35950 ft 405 kts 248°
2026-05-07 16:06 44.75864 -77.85905 35942 ft 407 kts 248°
2026-05-07 16:06 44.73573 -77.93188 35921 ft 406 kts 247°
2026-05-07 16:07 44.71285 -78.00436 35936 ft 404 kts 247°
2026-05-07 16:07 44.69385 -78.06444 35937 ft 404 kts 247°
2026-05-07 16:08 44.67096 -78.13661 35941 ft 405 kts 247°
2026-05-07 16:08 44.64801 -78.20877 35941 ft 405 kts 247°
2026-05-07 16:09 44.62498 -78.28095 35943 ft 404 kts 247°
2026-05-07 16:09 44.60208 -78.35257 35951 ft 405 kts 247°
2026-05-07 16:10 44.57907 -78.42431 35947 ft 401 kts 247°
2026-05-07 16:10 44.55615 -78.49559 35949 ft 400 kts 247°
2026-05-07 16:11 44.53321 -78.56673 35949 ft 400 kts 247°
2026-05-07 16:11 44.51021 -78.63786 35952 ft 401 kts 247°
2026-05-07 16:12 44.48714 -78.70903 35953 ft 403 kts 247°
2026-05-07 16:12 44.46407 -78.77999 35952 ft 403 kts 247°
2026-05-07 16:13 44.44081 -78.85136 35931 ft 401 kts 247°
2026-05-07 16:13 44.41766 -78.92220 35947 ft 399 kts 247°
2026-05-07 16:14 44.39456 -78.99273 35949 ft 399 kts 247°
2026-05-07 16:14 44.37138 -79.06335 35972 ft 399 kts 247°
2026-05-07 16:15 44.34803 -79.13430 35953 ft 403 kts 247°
2026-05-07 16:15 44.32467 -79.20496 35955 ft 403 kts 245°
2026-05-07 16:16 44.29410 -79.27076 35940 ft 405 kts 239°
2026-05-07 16:16 44.26258 -79.33594 35968 ft 405 kts 239°
2026-05-07 16:17 44.23092 -79.40104 35958 ft 405 kts 239°
2026-05-07 16:17 44.19920 -79.46608 35961 ft 407 kts 239°
2026-05-07 16:18 44.16727 -79.53141 35959 ft 407 kts 238°
2026-05-07 16:18 44.13553 -79.59621 35932 ft 407 kts 239°
2026-05-07 16:19 44.10375 -79.66094 35953 ft 404 kts 239°
2026-05-07 16:19 44.07190 -79.72567 35950 ft 405 kts 239°
2026-05-07 16:20 44.04005 -79.79025 35959 ft 405 kts 239°
2026-05-07 16:20 44.00811 -79.85489 35954 ft 406 kts 239°
2026-05-07 16:21 43.97607 -79.91958 35954 ft 406 kts 239°
2026-05-07 16:21 43.94409 -79.98399 35945 ft 404 kts 239°
2026-05-07 16:22 43.91253 -80.04782 35951 ft 403 kts 242°
2026-05-07 16:22 43.88470 -80.11504 35951 ft 402 kts 243°
2026-05-07 16:23 43.85649 -80.18202 35966 ft 402 kts 242°
2026-05-07 16:23 43.82809 -80.24895 35958 ft 403 kts 242°
2026-05-07 16:24 43.79966 -80.31581 35945 ft 401 kts 242°
2026-05-07 16:24 43.77139 -80.38213 35958 ft 400 kts 242°
2026-05-07 16:25 43.74307 -80.44841 35962 ft 400 kts 242°
2026-05-07 16:25 43.71475 -80.51454 35959 ft 400 kts 242°
2026-05-07 16:26 43.68636 -80.58068 35961 ft 401 kts 242°
2026-05-07 16:26 43.65806 -80.64645 35963 ft 401 kts 242°
2026-05-07 16:27 43.62958 -80.71250 35953 ft 399 kts 242°
2026-05-07 16:27 43.60115 -80.77826 35959 ft 399 kts 242°
2026-05-07 16:28 43.57270 -80.84395 35960 ft 399 kts 242°
2026-05-07 16:28 43.54421 -80.90957 35962 ft 399 kts 242°
2026-05-07 16:29 43.51562 -80.97527 35965 ft 400 kts 242°
2026-05-07 16:29 43.48692 -81.04108 35963 ft 400 kts 242°
2026-05-07 16:30 43.45828 -81.10659 35962 ft 396 kts 242°
2026-05-07 16:30 43.43002 -81.17109 35962 ft 396 kts 242°
2026-05-07 16:31 43.40156 -81.23592 35963 ft 396 kts 242°
2026-05-07 16:31 43.37302 -81.30076 35973 ft 396 kts 242°
2026-05-07 16:32 43.34446 -81.36552 35974 ft 397 kts 242°
2026-05-07 16:32 43.31582 -81.43032 35969 ft 397 kts 242°
2026-05-07 16:33 43.28721 -81.49490 35966 ft 394 kts 242°
2026-05-07 16:33 43.25891 -81.55863 35969 ft 394 kts 242°
2026-05-07 16:34 43.23035 -81.62283 35972 ft 394 kts 242°
2026-05-07 16:34 43.20177 -81.68693 35980 ft 395 kts 242°
2026-05-07 16:35 43.17300 -81.75130 35976 ft 396 kts 242°
2026-05-07 16:35 43.14417 -81.81567 35980 ft 396 kts 242°
2026-05-07 16:36 43.11561 -81.87930 35965 ft 393 kts 242°
2026-05-07 16:36 43.08702 -81.94286 35976 ft 392 kts 242°
2026-05-07 16:37 43.05836 -82.00644 35966 ft 392 kts 242°
2026-05-07 16:37 43.02969 -82.06988 35970 ft 392 kts 242°
2026-05-07 16:38 43.00095 -82.13336 35965 ft 392 kts 242°
2026-05-07 16:38 42.97221 -82.19672 35954 ft 392 kts 242°
2026-05-07 16:39 42.94352 -82.25980 35959 ft 389 kts 242°
2026-05-07 16:39 42.91511 -82.32218 35961 ft 389 kts 242°
2026-05-07 16:40 42.88649 -82.38490 35965 ft 389 kts 242°
2026-05-07 16:40 42.85780 -82.44762 35966 ft 391 kts 242°
2026-05-07 16:41 42.82897 -82.51054 35951 ft 391 kts 242°
2026-05-07 16:41 42.79660 -82.57036 35959 ft 398 kts 230°
2026-05-07 16:42 42.75783 -82.62410 35937 ft 395 kts 231°
2026-05-07 16:42 42.71925 -82.67748 35936 ft 395 kts 231°
2026-05-07 16:43 42.68087 -82.73034 35936 ft 395 kts 231°
2026-05-07 16:43 42.64222 -82.78347 35940 ft 395 kts 231°
2026-05-07 16:44 42.60343 -82.83669 35940 ft 397 kts 231°
2026-05-07 16:44 42.56458 -82.88989 35933 ft 397 kts 231°
2026-05-07 16:45 42.52569 -82.94305 35935 ft 397 kts 231°
2026-05-07 16:45 42.48680 -82.99610 35971 ft 397 kts 231°
2026-05-07 16:46 42.44786 -83.04912 35971 ft 397 kts 231°
2026-05-07 16:46 42.40912 -83.10178 35968 ft 397 kts 231°
2026-05-07 16:47 42.37022 -83.15456 35965 ft 395 kts 231°
2026-05-07 16:47 42.33136 -83.20718 35971 ft 395 kts 231°
2026-05-07 16:48 42.29244 -83.25978 35981 ft 395 kts 231°
2026-05-07 16:48 42.25352 -83.31229 35983 ft 395 kts 231°
2026-05-07 16:49 42.21481 -83.36490 35947 ft 393 kts 234°
2026-05-07 16:49 42.17898 -83.42019 35986 ft 390 kts 234°
2026-05-07 16:50 42.14327 -83.47450 35973 ft 389 kts 234°
2026-05-07 16:50 42.10721 -83.52911 35977 ft 390 kts 234°
2026-05-07 16:51 42.07104 -83.58378 35988 ft 392 kts 234°
2026-05-07 16:51 42.03469 -83.63860 35991 ft 392 kts 234°
2026-05-07 16:52 41.99862 -83.69292 35985 ft 390 kts 234°
2026-05-07 16:52 41.96245 -83.74726 35991 ft 390 kts 234°
2026-05-07 16:53 41.92624 -83.80158 36008 ft 390 kts 234°
2026-05-07 16:53 41.88996 -83.85590 36371 ft 391 kts 234°
2026-05-07 16:53 41.87182 -83.88301 36600 ft 391 kts 234°
2026-05-07 16:54 41.85977 -83.90102 36763 ft 391 kts 234°
2026-05-07 16:54 41.84155 -83.92821 37002 ft 392 kts 234°
2026-05-07 16:54 41.82330 -83.95543 37158 ft 393 kts 234°
2026-05-07 16:54 41.80495 -83.98278 37442 ft 392 kts 234°
2026-05-07 16:55 41.78687 -84.00971 37704 ft 391 kts 234°
2026-05-07 16:55 41.76866 -84.03679 37924 ft 391 kts 234°
2026-05-07 16:55 41.75039 -84.06394 38031 ft 392 kts 233°
2026-05-07 16:56 41.71393 -84.11805 38007 ft 390 kts 233°
2026-05-07 16:56 41.65931 -84.19892 38009 ft 391 kts 233°
2026-05-07 16:57 41.62284 -84.25280 37966 ft 390 kts 234°
2026-05-07 16:57 41.58640 -84.30653 38017 ft 390 kts 234°
2026-05-07 16:58 41.54997 -84.36015 38014 ft 390 kts 234°
2026-05-07 16:58 41.51372 -84.41341 38038 ft 390 kts 234°
2026-05-07 16:59 41.47721 -84.46696 38033 ft 390 kts 234°
2026-05-07 16:59 41.44065 -84.52048 38035 ft 390 kts 234°
2026-05-07 17:00 41.40412 -84.57386 38030 ft 389 kts 234°
2026-05-07 17:00 41.36766 -84.62705 38037 ft 388 kts 234°
2026-05-07 17:01 41.33117 -84.68017 38045 ft 389 kts 234°
2026-05-07 17:01 41.29462 -84.73330 38042 ft 389 kts 234°
2026-05-07 17:02 41.25825 -84.78607 38040 ft 389 kts 234°
2026-05-07 17:02 41.22164 -84.83910 37999 ft 389 kts 234°
2026-05-07 17:03 41.18512 -84.89189 38034 ft 388 kts 234°
2026-05-07 17:03 41.14861 -84.94458 38050 ft 388 kts 234°
2026-05-07 17:04 41.11207 -84.99722 38051 ft 388 kts 234°
2026-05-07 17:04 41.07549 -85.04984 38064 ft 388 kts 234°
2026-05-07 17:05 41.03886 -85.10245 38055 ft 389 kts 234°
2026-05-07 17:05 41.00219 -85.15503 38043 ft 387 kts 234°
2026-05-07 17:06 40.96729 -85.20839 38073 ft 384 kts 237°
2026-05-07 17:06 40.93346 -85.26320 38052 ft 384 kts 237°
2026-05-07 17:07 40.89946 -85.31787 38050 ft 385 kts 237°
2026-05-07 17:07 40.86545 -85.37242 38052 ft 385 kts 237°
2026-05-07 17:08 40.83136 -85.42698 38056 ft 385 kts 237°
2026-05-07 17:08 40.79723 -85.48152 38045 ft 385 kts 237°
2026-05-07 17:09 40.76306 -85.53602 38062 ft 385 kts 237°
2026-05-07 17:09 40.72886 -85.59047 38062 ft 385 kts 237°
2026-05-07 17:10 40.69488 -85.64447 38066 ft 385 kts 237°
2026-05-07 17:10 40.66066 -85.69876 38070 ft 385 kts 237°
2026-05-07 17:11 40.62636 -85.75307 38071 ft 385 kts 237°
2026-05-07 17:11 40.59208 -85.80728 38071 ft 385 kts 237°
2026-05-07 17:12 40.55782 -85.86135 38072 ft 385 kts 237°
2026-05-07 17:12 40.52347 -85.91546 38072 ft 385 kts 237°
2026-05-07 17:13 40.48932 -85.96916 38074 ft 385 kts 237°
2026-05-07 17:13 40.45494 -86.02313 38073 ft 385 kts 237°